Location: Nairn
(57.5833°N, 3.8667°W)
Time: 04:30:25
(UTC+00:00)

Altair - Pass Details

Date: 30 November 2020
Orbit: 1501 x 1682 km, 47.2° (Epoch: 17 January)

Event Time Altitude Azimuth Distance (km) Brightness Sun altitude
Rises 19:48:28 0° 205° (SSW) 4,723 10.2 -32.1°
Reaches altitude 10° 19:52:16 10° 193° (SSW) 3,715 9.5 -32.6°
Enters shadow 19:55:24 19° 176° (S) 3,061 8.9 -33.0°
